FW9243 Weather Reports


time (UTC)temp
C
wind
direction
speed
KPH
gust
KPH
rain 1hr
cm
rain 24hr
cm
rain mn
cm
humidity
%
barometer
mb
20260503060202 11 178 0.0 1.6 0.00 1.09 0.00 95 1012.9
20260503054704 11 223 0.0 1.6 0.00 1.09 0.00 95 1012.9
20260503054553 12 0 0.0 1.6 0.00 0.00 0.00 100 1013.4
20260503054202 11 45 0.0 1.6 0.00 1.09 0.00 95 1012.8
20260503053703 11 89 0.0 3.2 0.00 1.09 0.00 95 1012.7
20260503053203 11 152 1.6 3.2 0.00 1.09 0.00 95 1012.8
20260503053039 12 162 0.0 1.6 0.00 0.00 0.00 100 1013.3
20260503052703 11 63 0.0 3.2 0.00 1.09 0.00 95 1012.8
20260503052202 11 145 1.6 1.6 0.00 1.09 0.00 95 1012.8
20260503051704 11 178 0.0 1.6 0.00 1.09 0.00 95 1012.7
20260503051540 12 0 0.0 1.6 0.00 0.00 0.00 100 1013.3
20260503051202 11 223 0.0 1.6 0.00 1.09 0.00 95 1012.7
20260503050704 11 178 0.0 1.6 0.00 1.09 0.00 95 1012.7
20260503050202 11 206 0.0 1.6 0.00 1.09 0.00 95 1012.8
20260503050040 12 153 0.0 1.6 0.00 0.00 0.00 100 1013.3
20260503045703 11 178 1.6 1.6 0.00 1.09 0.00 95 1012.7
20260503045202 11 178 0.0 1.6 0.00 1.09 0.00 95 1012.7
20260503044704 11 45 0.0 1.6 0.00 1.09 0.00 95 1012.7
20260503044534 12 0 0.0 1.6 0.00 0.00 0.00 100 1013.2
20260503044202 12 206 0.0 1.6 0.00 1.09 0.00 95 1012.7
20260503043703 12 178 0.0 1.6 0.00 1.09 0.00 95 1012.7
20260503043201 12 178 0.0 1.6 0.00 1.09 0.00 95 1012.7
20260503043035 12 0 0.0 1.6 0.00 0.00 0.00 100 1013.3
20260503042704 12 178 0.0 1.6 0.00 1.09 0.00 95 1012.8
20260503042202 12 223 0.0 1.6 0.00 1.09 0.00 95 1012.7
20260503041926 12 152 1.6 1.6 0.00 1.09 0.00 95 1012.7
20260503041539 12 153 0.0 1.6 0.00 0.00 0.00 100 1013.3
20260503041202 12 178 0.0 1.6 0.00 1.09 0.00 95 1012.8
20260503040703 12 178 1.6 1.6 0.00 1.09 0.00 95 1012.8
20260503040203 12 241 0.0 3.2 0.00 1.09 0.00 95 1012.8
20260503040051 12 0 0.0 1.6 0.00 0.00 0.00 100 1013.4
20260503035703 12 45 0.0 3.2 0.00 1.09 0.00 95 1012.8
20260503035202 12 219 1.6 3.2 0.00 1.09 0.00 95 1012.9
20260503034704 12 178 0.0 1.6 0.00 1.09 0.00 95 1012.9
20260503034539 12 0 0.0 1.6 0.00 0.00 0.00 100 1013.5
20260503034202 12 223 1.6 1.6 0.00 1.09 0.00 95 1013.0
20260503033703 12 223 1.6 1.6 0.00 1.09 0.00 95 1013.0
20260503033202 12 269 1.6 1.6 0.00 1.09 0.00 95 1013.0
20260503033039 12 196 0.0 1.6 0.00 0.00 0.00 100 1013.5
20260503032702 12 178 0.0 1.6 0.00 1.09 0.00 95 1013.1
20260503032423 12 223 0.0 1.6 0.00 1.09 0.00 95 1013.1
20260503031704 12 45 0.0 1.6 0.00 1.09 0.00 95 1013.1
20260503031535 12 0 0.0 1.6 0.00 0.00 0.00 100 1013.6
20260503031202 12 223 0.0 1.6 0.00 1.09 0.00 95 1013.0
20260503030923 12 45 0.0 1.6 0.00 1.09 0.00 95 1013.0
20260503030203 12 269 1.6 1.6 0.00 1.09 0.00 95 1013.0
20260503030045 12 196 0.0 1.6 0.00 0.00 0.00 100 1013.6
20260503025704 12 178 1.6 1.6 0.00 1.09 0.00 95 1013.0
20260503025427 12 45 0.0 1.6 0.00 1.09 0.00 95 1013.1
20260503024704 12 223 0.0 1.6 0.00 1.09 0.00 95 1013.1
20260503024540 12 221 0.0 1.6 0.00 0.00 0.00 100 1013.7
20260503024202 12 206 0.0 1.6 0.00 1.09 0.00 95 1013.1
20260503023704 12 178 0.0 1.6 0.00 1.09 0.00 95 1013.1
20260503023427 12 223 0.0 1.6 0.00 1.09 0.00 95 1013.2
20260503023039 12 0 0.0 1.6 0.00 0.00 0.00 100 1013.7
20260503022704 12 178 0.0 1.6 0.00 1.09 0.00 95 1013.2
20260503022427 12 213 1.6 1.6 0.00 1.09 0.00 95 1013.2
20260503021704 12 45 0.0 1.6 0.00 1.09 0.00 95 1013.2
20260503021539 12 0 0.0 0.0 0.00 0.00 0.00 100 1013.8
20260503021427 12 241 0.0 1.6 0.00 1.09 0.00 95 1013.2
20260503020704 12 223 0.0 1.6 0.00 1.09 0.00 95 1013.3
20260503020202 12 178 0.0 1.6 0.00 1.09 0.00 95 1013.2
20260503020037 12 0 0.0 1.6 0.00 0.00 0.00 100 1013.9
20260503015703 12 250 0.0 1.6 0.00 1.09 0.00 95 1013.4
20260503015202 12 296 1.6 1.6 0.00 1.09 0.00 95 1013.3
20260503014704 12 269 0.0 3.2 0.00 1.09 0.00 95 1013.4
20260503014540 12 0 0.0 1.6 0.00 0.00 0.00 100 1014.0
20260503014422 12 269 1.6 3.2 0.00 1.09 0.00 95 1013.4
20260503013704 12 206 0.0 1.6 0.00 1.09 0.00 95 1013.4
20260503013202 12 178 0.0 1.6 0.00 1.09 0.00 95 1013.5
20260503013038 12 221 0.0 1.6 0.00 0.00 0.00 100 1014.1
20260503012703 12 223 0.0 1.6 0.00 1.09 0.00 95 1013.6
20260503012202 12 206 0.0 1.6 0.00 1.09 0.00 95 1013.6
20260503011703 12 45 0.0 1.6 0.00 1.09 0.00 95 1013.6
20260503011535 12 0 0.0 1.6 0.00 0.00 0.00 100 1014.3
20260503011203 12 45 0.0 1.6 0.00 1.09 0.00 95 1013.8
20260503010704 12 223 0.0 1.6 0.00 1.09 0.00 95 1013.8
20260503010202 12 223 1.6 1.6 0.00 1.09 0.00 95 1013.9
20260503010038 12 0 0.0 1.6 0.00 0.00 0.00 100 1014.4
20260503005703 12 223 1.6 1.6 0.00 1.09 0.00 95 1014.0
20260503005202 12 223 0.0 1.6 0.00 1.09 0.00 95 1014.0
20260503004703 12 269 1.6 1.6 0.00 1.09 0.00 95 1014.1
20260503004537 12 0 0.0 1.6 0.00 0.00 0.00 100 1014.5
20260503004202 12 178 0.0 1.6 0.00 1.09 0.00 95 1014.0
20260503003931 12 223 0.0 1.6 0.00 1.09 0.00 95 1014.1
20260503003202 12 178 0.0 1.6 0.00 1.09 0.00 95 1014.1
20260503003036 12 0 0.0 1.6 0.00 0.00 0.00 100 1014.5
20260503002703 12 269 0.0 1.6 0.00 1.09 0.00 95 1014.1
20260503002203 12 178 0.0 1.6 0.00 1.09 0.00 95 1014.2
20260503001704 12 178 0.0 1.6 0.00 1.09 0.00 95 1014.3
20260503001551 12 0 0.0 1.6 0.00 0.00 0.00 100 1014.7
20260503001202 12 206 0.0 1.6 0.00 1.09 0.00 95 1014.3
20260503001143 12 152 0.0 1.6 0.00 1.09 0.00 95 1014.3
20260503000203 12 206 0.0 1.6 0.00 1.09 0.00 95 1014.4
20260503000035 12 221 0.0 1.6 0.00 0.00 0.00 100 1014.7
20260502235919 12 206 0.0 1.6 0.00 1.09 0.00 95 1014.4
20260502235902 12 197 0.0 1.6 0.00 1.09 0.00 95 1014.4
20260502234703 12 269 0.0 1.6 0.00 1.09 0.00 95 1014.4
20260502234543 12 0 0.0 1.6 0.00 0.00 0.00 100 1014.9
20260502234202 12 206 0.0 1.6 0.00 1.09 0.00 95 1014.4
20260502233930 12 45 0.0 1.6 0.00 1.09 0.00 95 1014.5
20260502233202 12 206 0.0 1.6 0.00 1.09 0.00 95 1014.5
20260502233042 12 51 0.0 3.2 0.00 0.00 0.00 100 1014.9
20260502232703 12 178 1.6 1.6 0.00 1.09 0.00 95 1014.5
20260502232425 12 145 1.6 1.6 0.00 1.09 0.00 95 1014.5
20260502231704 12 223 1.6 1.6 0.00 1.09 0.00 95 1014.5
20260502231538 12 0 0.0 1.6 0.00 0.00 0.00 100 1014.8
20260502231202 12 206 0.0 1.6 0.00 1.09 0.00 95 1014.5
20260502230703 12 45 0.0 1.6 0.00 1.09 0.00 95 1014.6
20260502230202 12 206 0.0 1.6 0.00 1.09 0.00 95 1014.5
20260502230036 12 0 0.0 1.6 0.00 0.00 0.00 100 1015.0
20260502225703 12 206 0.0 3.2 0.00 1.09 0.00 95 1014.6
20260502225202 12 178 1.6 3.2 0.00 1.09 0.00 95 1014.5
20260502224704 12 152 0.0 3.2 0.00 1.09 0.00 95 1014.6
20260502224535 12 0 0.0 1.6 0.00 0.00 0.00 100 1015.0
20260502224201 12 178 0.0 1.6 0.00 1.09 0.00 95 1014.7
20260502223929 12 197 0.0 1.6 0.00 1.09 0.00 95 1014.7
20260502223202 12 223 0.0 3.2 0.00 1.09 0.00 95 1014.7
20260502223042 12 0 0.0 1.6 0.00 0.00 0.00 100 1015.1
20260502222703 12 178 1.6 3.2 0.00 1.09 0.00 95 1014.7
20260502222202 12 223 1.6 3.2 0.00 1.09 0.00 95 1014.7
20260502221926 12 213 1.6 3.2 0.00 1.09 0.00 95 1014.6
20260502221542 12 0 0.0 3.2 0.00 0.00 0.00 100 1015.1
20260502221203 12 314 1.6 3.2 0.00 1.09 0.00 95 1014.6
20260502220704 12 117 1.6 3.2 0.00 1.09 0.00 95 1014.6
20260502220202 12 145 1.6 6.4 0.00 1.09 0.00 95 1014.6
20260502220038 12 162 1.6 4.8 0.00 0.00 0.00 100 1015.1
20260502215705 12 161 3.2 6.4 0.00 1.09 1.09 95 1014.8
20260502215202 12 157 3.2 4.8 0.00 1.09 1.09 95 1014.7
20260502214704 12 178 3.2 6.4 0.00 1.09 1.09 95 1014.7
20260502214534 12 169 1.6 6.4 0.00 0.00 0.00 100 1015.2
20260502214202 12 148 3.2 6.4 0.00 1.09 1.09 95 1014.8
20260502213704 12 165 3.2 6.4 0.00 1.09 1.09 95 1014.9
20260502213202 12 171 3.2 6.4 0.00 1.09 1.09 95 1014.8
20260502213152 12 161 3.2 6.4 0.00 1.09 1.09 95 1014.8
20260502213039 12 153 3.2 3.2 0.00 0.00 0.00 100 1015.2
20260502212203 12 157 3.2 6.4 0.00 1.09 1.09 95 1014.8
20260502211921 12 171 3.2 4.8 0.00 1.09 1.09 95 1014.9
20260502211540 12 164 1.6 3.2 0.00 0.00 0.00 100 1015.3
20260502211425 12 161 1.6 1.6 0.00 1.09 1.09 95 1014.9
20260502210704 12 269 1.6 1.6 0.00 1.09 1.09 95 1014.9
20260502210203 12 152 1.6 1.6 0.00 1.09 1.09 95 1014.9
20260502210034 12 0 0.0 1.6 0.00 0.00 0.00 100 1015.3
20260502205704 12 165 0.0 3.2 0.00 1.09 1.09 95 1014.9
20260502205204 12 135 0.0 3.2 0.00 1.09 1.09 95 1014.8
20260502204922 12 178 0.0 1.6 0.00 1.09 1.09 95 1014.8
20260502204541 12 178 0.0 1.6 0.00 0.00 0.00 100 1015.3
20260502204204 12 178 1.6 3.2 0.03 1.09 1.09 95 1014.8
20260502203927 12 161 1.6 3.2 0.05 1.09 1.09 94 1014.7
20260502203203 12 89 0.0 1.6 0.05 1.09 1.09 94 1014.7
20260502203037 12 0 0.0 1.6 0.00 0.00 0.00 100 1015.1
20260502202703 12 135 0.0 1.6 0.05 1.09 1.09 94 1014.8
20260502202430 12 45 0.0 1.6 0.08 1.09 1.09 94 1014.7
20260502201704 12 178 0.0 1.6 0.10 1.09 1.09 94 1014.6
20260502201657 12 206 0.0 1.6 0.10 1.09 1.09 94 1014.6
20260502201545 12 0 0.0 1.6 0.00 0.00 0.00 100 1015.0
20260502200704 12 178 1.6 1.6 0.13 1.09 1.09 94 1014.5
20260502200434 12 45 0.0 1.6 0.15 1.09 1.09 94 1014.5
20260502200036 12 51 0.0 1.6 0.00 0.00 0.00 100 1014.9
20260502195704 12 89 0.0 1.6 0.20 0.89 1.09 94 1014.5
20260502195430 12 20 0.0 1.6 0.38 0.89 1.09 94 1014.6
20260502194703 12 178 0.0 1.6 0.48 0.89 1.07 94 1014.6
20260502194535 12 0 0.0 1.6 0.00 0.00 0.00 100 1015.0
20260502194424 12 331 0.0 1.6 0.53 0.89 1.07 94 1014.5
20260502193704 12 45 0.0 1.6 0.53 0.89 1.04 94 1014.5
20260502193204 12 178 1.6 3.2 0.53 0.89 1.04 94 1014.3
20260502193039 12 0 0.0 3.2 0.00 0.00 0.00 100 1014.9
20260502192704 12 314 1.6 3.2 0.51 0.89 1.02 94 1014.4
20260502192203 12 241 1.6 3.2 0.51 0.89 0.99 94 1014.3
20260502191704 13 223 1.6 4.8 0.48 0.89 0.99 94 1014.3
20260502191550 12 0 1.6 3.2 0.00 0.00 0.00 100 1014.7
20260502191203 13 306 1.6 4.8 0.48 0.89 0.99 94 1014.2
20260502190703 13 327 3.2 6.4 0.46 0.89 0.97 94 1014.3
20260502190204 13 312 4.8 6.4 0.43 0.89 0.89 94 1014.3
20260502190038 12 24 1.6 6.4 0.00 0.00 0.00 100 1014.7
20260502185703 13 45 3.2 6.4 0.38 0.51 0.84 94 1014.3
20260502185203 13 45 0.0 1.6 0.20 0.51 0.64 94 1014.4
20260502184703 13 45 1.6 1.6 0.10 0.51 0.58 94 1014.3
20260502184546 12 0 0.0 1.6 0.00 0.00 0.00 100 1014.7
20260502184423 13 178 0.0 3.2 0.05 0.51 0.51 94 1014.2
20260502183703 13 269 0.0 3.2 0.00 0.51 0.51 94 1014.1
20260502183203 13 59 1.6 3.2 0.03 0.51 0.51 94 1013.9
20260502183100 12 93 1.6 3.2 0.00 0.00 0.00 100 1014.4
20260502182703 13 39 1.6 3.2 0.03 0.51 0.51 94 1013.9
20260502182203 13 35 1.6 3.2 0.05 0.51 0.51 94 1014.0
20260502181704 13 76 1.6 4.8 0.05 0.51 0.51 94 1014.0
20260502181544 12 68 1.6 3.2 0.00 0.00 0.00 100 1014.5
20260502181204 13 89 1.6 4.8 0.05 0.51 0.51 94 1014.2
20260502180703 13 83 3.2 3.2 0.08 0.51 0.51 94 1014.2
20260502180424 13 61 3.2 3.2 0.13 0.51 0.51 94 1014.3
20260502170203 13 1 4.8 6.4 0.18 0.36 0.36 93 1014.5
20260502164204 13 1 4.8 6.4 0.10 0.20 0.23 92 1014.5
20260502163703 13 1 6.4 6.4 0.13 0.20 0.23 92 1014.2
20260502163202 13 1 6.4 6.4 0.15 0.20 0.23 92 1014.2
20260502163040 13 9 4.8 6.4 0.00 0.00 0.00 100 1014.7
20260502162704 13 1 4.8 6.4 0.18 0.20 0.23 92 1014.2
20260502162134 13 1 4.8 6.4 0.20 0.20 0.20 92 1014.3
20260502161631 13 1 4.8 6.4 0.20 0.20 0.20 92 1014.3
20260502161535 13 9 4.8 6.4 0.00 0.00 0.00 100 1014.8
20260502161132 13 1 4.8 6.4 0.20 0.20 0.20 92 1014.2
20260502160849 13 1 4.8 6.4 0.20 0.20 0.20 92 1014.2
20260502160131 13 1 4.8 6.4 0.20 0.20 0.20 92 1014.2
20260502152131 14 89 3.2 6.4 0.00 0.00 0.00 88 1014.7
20260502151629 14 269 1.6 8.0 0.00 0.00 0.00 87 1014.8
20260502151541 14 319 1.6 8.0 0.00 0.00 0.00 100 1015.2
20260502151130 15 1 4.8 11.3 0.00 0.00 0.00 87 1014.6
20260502150629 15 1 3.2 11.3 0.00 0.00 0.00 86 1014.5
20260502150130 15 314 3.2 9.7 0.00 0.00 0.00 85 1014.6
20260502140129 15 42 3.2 9.7 0.00 0.00 0.00 81 1015.0
20260502130128 18 230 3.2 4.8 0.00 0.00 0.00 66 1014.9
20260502123626 17 206 1.6 3.2 0.00 0.00 0.00 72 1015.0
20260502123127 17 206 3.2 3.2 0.00 0.00 0.00 73 1015.0
20260502123038 17 309 1.6 1.6 0.00 0.00 0.00 73 1015.4
20260502122626 17 254 1.6 4.8 0.00 0.00 0.00 72 1015.1
20260502122127 17 206 3.2 6.4 0.00 0.00 0.00 73 1015.0
20260502121626 17 223 1.6 6.4 0.00 0.00 0.00 75 1015.2
20260502121547 17 1.6 1.6 0.00 0.00 0.00 73 1015.7
20260502121126 17 223 1.6 4.8 0.00 0.00 0.00 75 1015.3
20260502120626 17 223 1.6 3.2 0.00 0.00 0.00 75 1015.3
20260502120126 17 28 1.6 3.2 0.00 0.00 0.00 71 1015.4
20260502115625 18 213 1.6 4.8 0.00 0.00 0.00 72 1015.4
20260502115126 18 178 1.6 4.8 0.00 0.00 0.00 71 1015.4
20260502114625 18 206 1.6 4.8 0.00 0.00 0.00 70 1015.4
20260502114541 17 234 1.6 3.2 0.00 0.00 0.00 68 1015.8
20260502114126 17 223 1.6 4.8 0.00 0.00 0.00 69 1015.4
20260502113625 17 206 1.6 4.8 0.00 0.00 0.00 69 1015.4
20260502113126 17 152 1.6 4.8 0.00 0.00 0.00 69 1015.4
20260502113039 17 9 1.6 3.2 0.00 0.00 0.00 68 1015.9
20260502112626 17 223 1.6 3.2 0.00 0.00 0.00 68 1015.5
20260502112125 17 206 1.6 4.8 0.00 0.00 0.00 68 1015.5
20260502111624 17 286 3.2 4.8 0.00 0.00 0.00 69 1015.6
20260502111536 17 342 1.6 4.8 0.00 0.00 0.00 69 1015.9
20260502111125 17 206 3.2 4.8 0.00 0.00 0.00 68 1015.6
20260502110624 17 213 1.6 4.8 0.00 0.00 0.00 70 1015.5
20260502110126 17 210 3.2 4.8 0.00 0.00 0.00 71 1015.5
20260502110040 17 239 1.6 4.8 0.00 0.00 0.00 72 1015.9
20260502105624 17 16 3.2 6.4 0.00 0.00 0.00 73 1015.5
20260502105125 17 1 1.6 8.0 0.00 0.00 0.00 71 1015.6
20260502104624 17 8 4.8 8.0 0.00 0.00 0.00 72 1015.6
20260502104540 16 51 1.6 3.2 0.00 0.00 0.00 75 1016.0
20260502104125 17 197 3.2 4.8 0.00 0.00 0.00 75 1015.7
20260502103623 16 1 1.6 4.8 0.00 0.00 0.00 76 1015.8
20260502103124 16 1 3.2 4.8 0.00 0.00 0.00 75 1015.8
20260502103043 16 325 3.2 3.2 0.00 0.00 0.00 75 1016.3
20260502102623 16 206 1.6 3.2 0.00 0.00 0.00 75 1015.9
20260502102126 16 314 1.6 6.4 0.00 0.00 0.00 76 1015.9
20260502101837 16 8 1.6 4.8 0.00 0.00 0.00 76 1016.0
20260502101623 16 45 0.0 6.4 0.00 0.00 0.00 76 1016.0
20260502101545 16 0 1.6 3.2 0.00 0.00 0.00 78 1016.4
20260502100845 16 1 1.6 4.8 0.00 0.00 0.00 76 1016.0
20260502100124 16 331 3.2 6.4 0.00 0.00 0.00 78 1016.0
20260502091123 14 16 1.6 4.8 0.00 0.00 0.00 87 1016.3
20260502090622 13 45 1.6 4.8 0.00 0.00 0.00 89 1016.3
20260502090123 13 178 1.6 3.2 0.00 0.00 0.00 91 1016.3
20260502071120 11 45 1.6 3.2 0.00 0.00 0.00 92 1016.4
20260502070619 11 178 1.6 3.2 0.00 0.00 0.00 92 1016.3
20260502070121 11 117 1.6 3.2 0.00 0.00 0.00 92 1016.4
20260502070106 11 109 1.6 3.2 0.00 0.00 0.00 92 1016.4
20260502070040 11 137 1.6 1.6 0.00 0.00 0.00 100 1016.8
20260502065119 11 45 1.6 3.2 0.00 0.00 0.00 92 1016.4
20260502065106 11 178 0.0 3.2 0.00 0.00 0.00 92 1016.3
20260502064540 11 162 1.6 3.2 0.00 0.00 0.00 100 1016.8
20260502064118 11 152 1.6 3.2 0.00 0.00 0.00 92 1016.3
20260502063618 11 63 3.2 3.2 0.00 0.00 0.00 93 1016.3